Wind_Speed
3 4 5 6 6 7 8 9 9 10 10 11 12 12 13 14 15 16 17 17 18 18 19 20 20 20 21 21 22 22 23 23 23 24 24 23 23 23 23 24 24 24 24
6 7 7 8 8 9 9 10 10 11 11 12 13 14 15 16 16 17 18 19 19 20 21 22 22 23 23 24 24 25 25 26 26 26 27 27 27 27 27 27 27 27 28
8 8 8 9 9 9 10 10 11 12 13 14 15 16 16 17 18 18 19 20 21 22 23 24 24 25 25 26 26 27 27 28 29 29 30 30 30 30 30 30 31 31 31
8 9 9 9 10 10 11 11 12 13 14 15 16 17 18 18 19 20 21 22 23 23 24 25 26 26 27 28 28 29 30 30 31 32 33 34 34 34 34 34 35 35 35
9 9 10 10 11 12 12 13 14 15 16 16 17 18 19 19 20 21 22 23 24 25 26 26 27 28 29 30 31 31 32 33 34 35 36 36 37 38 38 38 38 39 39
10 10 11 11 12 13 13 14 15 16 16 17 18 19 19 20 21 22 23 24 25 26 27 27 28 29 30 31 32 33 34 35 36 37 38 39 40 41 41 41 42 42 43
10 11 11 12 13 13 14 15 15 16 17 18 18 19 20 21 22 23 24 25 26 27 27 28 29 30 31 32 33 34 36 37 38 39 40 41 42 43 44 45 45 46 46
11 11 12 12 13 14 14 15 16 16 17 18 19 20 20 21 22 23 24 25 26 27 28 29 30 31 32 33 34 35 36 38 39 41 42 43 44 45 46 48 49 49 50
11 12 12 13 13 14 14 15 16 17 18 19 19 20 21 22 23 24 25 26 27 28 29 30 31 32 32 34 35 36 37 38 40 41 43 44 46 47 48 50 51 53 54
11 12 12 13 14 14 15 16 16 17 18 19 20 21 22 23 24 25 26 27 28 29 30 31 32 33 34 35 36 37 38 39 40 41 43 45 47 48 50 51 53 55 56
12 12 13 13 14 15 16 17 17 18 19 20 21 23 24 25 26 27 28 29 30 31 32 33 34 35 36 37 38 39 40 41 42 43 44 46 48 49 51 53 55 56 58
12 12 13 13 14 15 16 17 18 19 21 22 23 24 26 27 28 29 30 32 33 34 35 36 37 38 39 40 41 42 43 44 45 46 47 48 49 51 53 54 56 58 60
12 13 13 14 15 16 17 18 19 20 22 23 24 26 27 28 30 31 32 34 35 36 37 38 39 40 41 42 43 44 45 46 47 48 49 50 52 53 55 56 58 60 62
13 14 14 15 16 17 18 19 20 21 22 24 25 27 28 30 31 33 34 35 37 38 39 40 41 42 43 44 46 47 48 48 49 50 52 53 54 55 57 59 61 63 65
14 15 16 16 17 18 19 20 21 22 23 25 26 27 29 31 32 34 36 37 39 40 41 42 43 44 45 46 48 49 50 51 52 53 54 55 56 58 60 61 63 65 68
16 16 17 18 19 19 20 21 22 23 24 25 27 28 30 32 34 36 37 39 41 42 43 44 45 46 47 48 49 50 51 53 54 55 56 57 59 60 62 63 66 68 70
18 19 19 20 21 21 22 23 24 25 27 28 29 31 32 34 36 38 40 41 43 45 46 47 48 49 49 50 51 52 53 54 56 57 58 59 61 62 64 65 67 70 72
20 21 22 22 23 24 25 26 27 28 30 31 32 34 35 37 39 40 42 44 46 47 49 49 50 51 52 53 53 54 55 56 57 59 60 61 63 64 65 67 69 71 73
23 23 24 25 25 26 27 28 30 31 32 34 35 37 38 40 42 43 45 46 48 50 51 52 53 53 54 54 55 56 57 57 59 60 61 63 64 66 67 69 70 72 75
25 26 27 27 28 29 30 31 33 34 36 37 38 40 41 43 44 46 47 49 50 52 53 54 55 56 56 56 57 57 57 58 60 61 63 64 66 67 69 71 72 74 75
28 29 29 30 31 32 33 34 35 36 38 40 41 43 44 46 47 49 50 52 53 54 55 56 57 58 58 58 58 58 58 59 61 62 64 66 68 69 71 72 74 75 76
30 31 32 32 33 34 36 37 38 39 41 43 44 46 48 49 50 51 53 54 55 56 57 58 59 59 60 60 60 60 59 60 60 63 65 67 69 71 73 74 75 76 76
32 33 34 35 36 37 39 40 41 43 44 46 48 49 51 52 53 54 55 56 57 58 59 60 60 60 61 61 61 61 61 61 61 63 65 68 70 72 74 75 75 76 76
35 36 37 38 39 40 42 43 44 46 47 49 50 52 53 54 55 56 57 59 59 60 60 60 61 61 61 61 61 61 62 63 64 63 65 68 71 72 74 75 75 75 75
37 38 40 41 42 44 45 47 48 49 50 52 53 54 56 57 58 58 59 61 61 61 61 62 62 61 62 62 62 62 63 64 65 65 66 68 70 72 73 74 74 74 73
39 41 42 43 44 46 48 49 51 52 53 54 55 57 58 59 60 60 61 63 62 62 63 63 63 62 62 62 63 63 64 65 66 67 67 68 70 70 71 72 73 72 71
Wind_Direction
284 286 288 291 293 294 295 295 296 296 298 298 297 296 295 293 292 290 290 290 289 288 287 286 285 283 282 280 279 278 277 277 276 275 274 273 271 270 268 268 267 266 263
285 286 288 290 293 294 296 297 298 300 300 300 298 297 295 294 292 291 291 290 290 289 288 287 286 284 283 282 280 279 278 278 277 276 274 273 271 270 269 267 266 266 265
284 287 289 292 294 296 298 299 300 301 301 301 300 298 297 295 294 293 293 292 291 290 289 288 287 285 284 282 281 280 279 279 278 277 276 275 273 271 270 269 267 265 264
287 290 292 294 296 298 299 301 302 302 302 301 300 299 298 296 295 295 294 293 292 291 290 289 288 287 285 283 282 281 280 279 278 278 277 276 275 273 271 270 268 266 265
291 293 295 297 299 301 302 303 303 302 302 301 300 299 298 297 296 296 295 294 293 292 291 290 289 288 286 285 283 282 280 279 278 278 277 276 275 274 273 271 269 268 266
293 296 298 300 302 303 304 304 304 304 303 302 301 300 299 298 298 297 296 295 294 293 293 291 290 289 287 285 284 283 281 280 279 277 276 275 274 273 272 271 269 268 267
295 298 301 303 305 306 306 306 306 305 304 303 302 302 301 300 299 299 298 296 296 295 294 293 292 290 289 287 285 284 282 281 279 277 276 274 273 272 271 270 268 267 267
297 300 303 305 307 308 308 308 308 307 306 306 305 304 304 303 302 302 301 300 298 297 296 295 294 292 291 289 288 286 284 283 281 279 276 275 273 272 271 269 267 266 264
299 302 305 307 309 310 310 310 310 309 309 308 308 308 307 307 306 305 304 303 302 301 300 298 297 295 294 292 291 289 287 285 284 281 279 276 275 273 272 269 268 266 264
302 306 308 310 311 311 311 311 311 311 311 311 311 311 311 310 309 308 307 305 304 303 303 301 300 299 297 295 294 292 290 288 286 284 282 280 278 276 274 272 270 268 266
304 307 309 311 312 312 312 312 312 312 312 312 312 312 312 312 311 311 310 308 307 306 304 303 302 300 299 297 296 294 293 291 290 288 286 284 281 279 278 276 273 271 269
303 306 309 310 312 313 313 313 314 313 313 313 313 314 313 313 313 312 311 310 309 307 306 304 303 301 300 299 297 296 295 293 292 291 289 287 285 283 281 279 277 275 273
301 304 307 309 311 313 314 314 315 315 315 316 316 316 316 315 315 314 313 311 310 309 307 306 304 302 301 300 299 297 296 294 293 292 291 290 288 287 285 283 281 279 277
297 300 303 306 308 311 312 313 314 315 316 316 316 316 317 317 316 316 315 313 312 311 309 308 306 304 302 301 299 298 297 296 295 294 293 293 291 290 288 286 285 283 282
292 296 299 302 305 307 309 310 312 313 314 315 316 317 317 318 318 317 317 315 314 313 311 310 308 306 304 302 300 299 298 297 296 295 295 294 294 293 292 290 289 287 286
288 291 294 297 300 302 304 306 308 310 311 313 314 316 317 318 318 318 317 317 316 315 313 312 310 308 306 304 302 301 299 298 298 297 296 296 296 295 295 293 292 291 290
285 288 290 293 296 298 301 302 304 306 308 310 311 313 315 316 317 317 316 316 315 315 314 313 311 309 308 306 304 302 301 300 299 299 298 298 297 298 297 296 295 294 294
284 286 288 290 292 294 296 299 301 303 304 306 307 309 311 312 313 314 314 314 314 314 313 312 311 310 308 306 305 303 302 301 301 300 300 299 299 299 299 299 298 298 297
283 285 286 288 290 292 294 296 298 300 301 303 305 306 307 309 310 311 312 313 313 312 312 311 310 309 308 307 305 304 303 303 302 302 302 301 301 301 302 302 301 301 300
281 283 284 286 288 290 293 294 296 298 299 302 303 305 306 307 308 309 310 311 311 311 311 310 310 309 308 307 306 305 304 303 304 304 304 304 304 304 304 304 304 304 303
280 281 283 285 287 289 291 293 295 296 298 300 301 303 304 305 307 307 308 309 309 309 309 309 309 308 307 306 305 304 304 304 305 306 306 306 306 306 307 306 306 306 305
280 281 283 285 287 289 290 292 294 295 297 298 300 301 303 304 305 306 306 307 308 308 307 307 307 307 307 305 305 304 303 304 305 307 307 308 308 308 309 308 308 307 306
279 280 283 285 287 288 289 291 293 294 296 297 298 300 301 302 303 304 305 305 306 306 306 306 306 306 306 305 304 304 304 304 304 307 308 309 309 309 310 310 309 308 307
278 280 282 284 286 287 289 291 292 294 295 295 297 299 300 301 302 303 303 304 304 305 304 304 305 305 305 305 304 304 304 305 306 307 308 309 309 310 310 311 310 309 309
279 281 283 285 286 287 289 290 292 293 294 295 296 298 298 300 301 302 302 303 304 304 303 303 304 304 304 305 304 304 305 305 306 307 309 309 310 311 311 311 310 310 309
281 282 284 285 287 288 289 290 292 292 293 294 296 296 297 298 300 301 301 302 303 303 303 303 303 303 304 305 305 305 305 306 306 308 309 310 311 311 311 311 310 310 309
Height
5878 5878 5877 5877 5876 5875 5875 5874 5873 5873 5872 5871 5871 5870 5869 5868 5868 5867 5866 5865 5864 5863 5863 5862 5862 5861 5861 5860 5860 5859 5858 5858 5858 5858 5859 5859 5859 5860 5860 5861 5861 5862 5863
5877 5876 5876 5875 5874 5874 5873 5872 5871 5870 5869 5869 5868 5867 5866 5865 5864 5863 5862 5861 5860 5860 5859 5858 5857 5856 5856 5855 5855 5854 5853 5853 5853 5853 5853 5854 5854 5855 5855 5856 5856 5857 5858
5876 5875 5874 5873 5872 5871 5871 5870 5869 5868 5867 5866 5865 5864 5863 5862 5861 5860 5859 5857 5856 5855 5854 5853 5852 5851 5851 5850 5849 5848 5848 5847 5847 5847 5847 5847 5848 5849 5849 5850 5850 5851 5852
5874 5873 5872 5871 5870 5869 5868 5867 5866 5865 5864 5863 5862 5860 5859 5858 5857 5856 5854 5853 5852 5851 5849 5848 5847 5846 5845 5844 5843 5842 5842 5841 5841 5840 5840 5840 5841 5841 5842 5843 5843 5844 5845
5871 5870 5870 5869 5868 5866 5865 5864 5863 5862 5861 5859 5858 5857 5855 5854 5853 5851 5850 5848 5847 5845 5844 5843 5841 5840 5839 5838 5837 5836 5835 5834 5834 5833 5833 5832 5833 5833 5834 5835 5835 5836 5837
5869 5868 5867 5866 5865 5864 5862 5861 5860 5859 5857 5856 5854 5853 5852 5850 5848 5847 5845 5843 5841 5840 5838 5837 5835 5834 5832 5831 5830 5828 5828 5827 5826 5826 5825 5825 5824 5824 5825 5825 5826 5827 5828
5867 5866 5865 5863 5862 5861 5859 5858 5857 5855 5854 5852 5851 5849 5847 5846 5844 5842 5840 5838 5836 5834 5832 5830 5829 5827 5826 5824 5823 5821 5820 5819 5818 5817 5817 5816 5816 5815 5816 5816 5817 5817 5818
5864 5863 5862 5861 5859 5858 5856 5855 5853 5852 5850 5848 5847 5845 5843 5841 5839 5837 5835 5833 5830 5828 5826 5824 5822 5820 5818 5817 5815 5813 5812 5810 5809 5808 5807 5806 5806 5806 5805 5806 5806 5807 5808
5862 5860 5859 5858 5856 5855 5853 5852 5850 5848 5846 5845 5843 5841 5839 5836 5834 5832 5829 5827 5824 5822 5820 5817 5815 5813 5811 5809 5806 5805 5803 5801 5800 5798 5797 5796 5795 5795 5794 5794 5794 5795 5795
5859 5858 5856 5855 5853 5851 5850 5848 5846 5845 5843 5841 5838 5836 5834 5831 5829 5826 5824 5821 5818 5816 5813 5810 5808 5805 5802 5800 5798 5795 5793 5791 5789 5787 5786 5784 5783 5782 5782 5781 5781 5781 5781
5856 5855 5853 5851 5850 5848 5846 5844 5843 5841 5838 5836 5834 5831 5829 5826 5823 5820 5817 5815 5812 5809 5806 5803 5800 5797 5794 5791 5788 5785 5783 5780 5778 5776 5774 5772 5770 5769 5768 5767 5766 5766 5765
5853 5852 5850 5848 5846 5844 5842 5840 5838 5836 5834 5832 5829 5826 5823 5820 5817 5814 5811 5808 5805 5801 5798 5794 5791 5788 5784 5781 5778 5775 5772 5769 5766 5763 5761 5759 5757 5755 5753 5751 5750 5749 5748
5850 5848 5847 5845 5843 5841 5839 5836 5834 5832 5829 5827 5824 5821 5818 5815 5811 5808 5804 5801 5797 5793 5790 5786 5782 5778 5774 5771 5767 5763 5760 5757 5753 5750 5748 5745 5742 5739 5737 5735 5733 5731 5730
5846 5845 5843 5841 5839 5837 5835 5832 5830 5827 5825 5822 5819 5815 5812 5809 5805 5801 5797 5793 5789 5785 5781 5777 5773 5768 5764 5760 5756 5752 5748 5744 5741 5737 5734 5730 5727 5724 5721 5718 5715 5712 5710
5843 5841 5839 5837 5835 5833 5830 5828 5825 5823 5820 5817 5814 5810 5806 5802 5799 5794 5790 5786 5781 5777 5772 5768 5763 5758 5754 5749 5744 5740 5736 5731 5727 5723 5720 5716 5712 5708 5704 5700 5696 5693 5689
5838 5837 5835 5833 5830 5828 5826 5823 5820 5818 5815 5811 5808 5804 5800 5796 5792 5787 5783 5778 5773 5768 5763 5758 5753 5748 5743 5738 5733 5728 5723 5718 5714 5709 5705 5701 5696 5692 5687 5682 5678 5673 5668
5834 5832 5830 5828 5826 5823 5821 5818 5815 5812 5809 5805 5802 5798 5793 5789 5785 5780 5775 5770 5765 5759 5754 5748 5743 5737 5732 5726 5721 5715 5710 5705 5700 5695 5690 5685 5680 5675 5670 5664 5658 5652 5646
5829 5827 5825 5823 5820 5818 5815 5812 5809 5806 5802 5799 5795 5791 5786 5782 5777 5772 5767 5761 5756 5750 5744 5738 5732 5727 5721 5715 5709 5703 5697 5691 5686 5680 5674 5669 5663 5658 5652 5645 5638 5631 5623
5823 5821 5819 5817 5814 5812 5809 5806 5803 5799 5795 5792 5787 5783 5779 5774 5768 5763 5758 5752 5746 5740 5734 5728 5722 5716 5709 5703 5697 5690 5684 5677 5671 5665 5659 5652 5646 5639 5632 5625 5618 5609 5600
5817 5815 5813 5810 5807 5805 5802 5799 5795 5792 5787 5783 5779 5775 5770 5765 5759 5754 5748 5742 5736 5730 5724 5717 5711 5704 5697 5691 5684 5677 5670 5663 5656 5649 5642 5635 5628 5620 5613 5604 5596 5587 5578
5810 5808 5806 5803 5800 5797 5794 5791 5788 5784 5779 5775 5770 5766 5760 5755 5750 5744 5738 5732 5725 5719 5712 5705 5698 5691 5684 5677 5671 5664 5657 5649 5641 5633 5625 5617 5609 5601 5592 5583 5574 5564 5554
5803 5800 5798 5795 5792 5789 5786 5782 5779 5775 5771 5766 5761 5755 5750 5745 5739 5733 5727 5720 5714 5707 5700 5693 5686 5679 5671 5664 5657 5649 5643 5637 5629 5618 5608 5599 5589 5580 5571 5561 5551 5541 5530
5795 5792 5789 5786 5783 5780 5776 5773 5770 5765 5761 5756 5750 5745 5740 5734 5728 5722 5715 5708 5702 5695 5687 5680 5673 5665 5658 5650 5642 5634 5627 5620 5613 5605 5593 5582 5572 5561 5551 5540 5529 5518 5507
5786 5783 5781 5777 5774 5770 5766 5763 5759 5755 5751 5745 5739 5734 5728 5722 5716 5709 5702 5695 5689 5681 5674 5666 5659 5651 5643 5635 5628 5620 5611 5603 5595 5589 5580 5566 5554 5543 5531 5520 5508 5496 5485
5777 5774 5771 5768 5764 5760 5756 5752 5748 5744 5739 5733 5728 5722 5716 5710 5703 5696 5689 5682 5675 5668 5660 5652 5645 5637 5629 5621 5613 5605 5596 5587 5577 5570 5563 5551 5538 5525 5513 5500 5488 5476 5465
5768 5765 5762 5758 5754 5750 5745 5741 5736 5732 5726 5721 5715 5709 5702 5696 5690 5683 5675 5668 5661 5653 5645 5638 5630 5622 5614 5605 5597 5588 5580 5571 5561 5552 5544 5534 5523 5510 5496 5482 5469 5457 5446